Location: Chèvreville
(49.1099°N, 2.8495°E)
Time: 07:08:55
(UTC+00:00)

YAOGAN 1 - Pass Details

Date: 28 January 2023
Orbit: 616 x 618 km, 97.8° (Epoch: 30 March)

Event Time Altitude Azimuth Distance (km) Brightness Sun altitude
Rises 18:03:07 0° 151° (SSE) 2,880 5.8 -13.9°
Reaches altitude 10° 18:05:20 10° 146° (SE) 1,980 4.9 -14.2°
Maximum altitude 18:09:30 51° 71° (ENE) 780 2.7 -14.9°
Drops below altitude 10° 18:13:43 10° 355° (N) 1,997 5.1 -15.6°
Sets 18:15:57 0° 351° (N) 2,908 6.0 -15.9°
